[Date Prev][Date Next][Thread Prev][Thread Next] - [Date Index][Thread Index][Author Index]
2 Line ISS Keps 11-20
- Subject: [sarex] 2 Line ISS Keps 11-20
- From: "Dave Larsen PhD" <doc@xxxxxxxxxxx>
- Date: Tue, 20 Nov 2001 05:12:48 -0800
ISS
1 25544U 98067A 01324.18324361 .00059667 00000-0 67874-3 0 7398
2 25544 51.6414 24.1262 0009972 355.7036 95.9662 15.61654838171425
----
Via the sarex mailing list at AMSAT.ORG courtesy of AMSAT-NA.
To unsubscribe, send "unsubscribe sarex" to Majordomo@amsat.org
AMSAT Home